FW7738 Weather Reports


time (UTC)temp
C
wind
direction
speed
KPH
gust
KPH
rain 1hr
cm
rain 24hr
cm
rain mn
cm
humidity
%
barometer
mb
20260508071029 13 318 4.8 9.7 0.00 0.86 0.00 81 1012.0
20260508070024 13 320 6.4 12.9 0.00 0.86 0.00 82 1012.2
20260508065059 13 286 3.2 6.4 0.00 0.86 0.00 82 1012.1
20260508064055 13 277 1.6 6.4 0.00 0.86 0.00 82 1011.9
20260508063030 12 355 3.2 9.7 0.00 0.86 0.00 82 1011.5
20260508062045 12 297 1.6 6.4 0.00 0.86 0.00 82 1011.6
20260508061021 12 313 3.2 6.4 0.00 0.86 0.00 83 1011.5
20260508060016 12 312 4.8 9.7 0.00 0.86 0.00 82 1011.4
20260508055032 12 299 3.2 9.7 0.00 0.86 0.00 84 1011.4
20260508054027 12 336 3.2 6.4 0.00 0.86 0.00 84 1011.0
20260508053022 12 295 6.4 11.3 0.00 0.86 0.00 85 1011.1
20260508052018 11 279 8.0 12.9 0.00 0.86 0.00 85 1010.9
20260508051034 11 288 6.4 12.9 0.00 0.86 0.00 86 1010.6
20260508050029 11 279 6.4 12.9 0.00 0.86 0.00 86 1010.5
20260508045024 12 272 4.8 12.9 0.00 0.86 0.00 85 1010.5
20260508044020 12 295 1.6 3.2 0.00 0.86 0.00 85 1010.4
20260508043035 12 309 1.6 4.8 0.00 0.86 0.00 85 1010.2
20260508042031 12 327 1.6 3.2 0.00 0.86 0.00 85 1010.4
20260508041046 12 323 0.0 6.4 0.00 0.86 0.00 85 1010.3
20260508040021 12 305 6.4 12.9 0.00 0.86 0.00 85 1010.1
20260508035017 12 303 6.4 16.1 0.00 0.86 0.00 85 1010.1
20260508034033 12 299 6.4 12.9 0.00 0.86 0.00 85 1010.2
20260508033027 12 301 4.8 11.3 0.00 0.86 0.00 84 1010.3
20260508032023 12 306 3.2 6.4 0.00 0.86 0.00 85 1010.5
20260508031019 12 337 0.0 3.2 0.00 0.86 0.00 85 1010.7
20260508030034 12 334 0.0 3.2 0.00 0.86 0.00 85 1010.7
20260508025050 12 0.0 0.0 0.00 0.86 0.00 85 1010.7
20260508024025 12 343 1.6 4.8 0.00 0.86 0.00 84 1010.9
20260508023020 12 305 1.6 4.8 0.00 0.86 0.00 83 1010.9
20260508022016 12 323 4.8 9.7 0.00 0.86 0.00 83 1010.6
20260508021031 12 312 8.0 12.9 0.00 0.86 0.00 83 1010.8
20260508020047 12 311 6.4 11.3 0.00 0.86 0.00 84 1011.1
20260508015022 13 289 6.4 11.3 0.00 0.86 0.00 84 1011.0
20260508014017 13 293 6.4 12.9 0.00 0.86 0.00 83 1010.9
20260508013033 13 299 6.4 11.3 0.00 0.86 0.00 83 1011.0
20260508012028 13 308 6.4 12.9 0.00 0.86 0.00 83 1011.2
20260508011023 13 304 8.0 12.9 0.00 0.86 0.00 83 1011.2
20260508010019 13 305 8.0 11.3 0.00 0.86 0.00 84 1011.3
20260508005034 13 298 8.0 14.5 0.00 0.86 0.00 86 1011.4
20260508004030 13 293 8.0 16.1 0.00 0.86 0.00 87 1011.5
20260508003025 13 290 6.4 12.9 0.00 0.86 0.00 88 1011.6
20260508002020 13 293 6.4 12.9 0.00 0.86 0.00 88 1011.6
20260508001035 13 281 8.0 12.9 0.00 0.86 0.00 88 1011.6
20260508000050 13 289 8.0 14.5 0.00 0.86 0.86 86 1011.7
20260507235026 13 291 6.4 12.9 0.00 0.86 0.86 83 1011.7
20260507234021 13 294 6.4 11.3 0.00 0.86 0.86 84 1011.8
20260507233016 13 304 8.0 11.3 0.00 0.86 0.86 86 1011.9
20260507232032 13 312 8.0 14.5 0.00 0.86 0.86 89 1012.0
20260507231047 13 299 6.4 12.9 0.00 0.86 0.86 90 1012.0
20260507230023 13 315 8.0 12.9 0.00 0.86 0.86 91 1011.9
20260507225018 13 314 6.4 11.3 0.00 0.86 0.86 91 1012.0
20260507224033 13 310 6.4 11.3 0.00 0.86 0.86 92 1012.1
20260507223049 13 322 6.4 11.3 0.00 0.86 0.86 93 1012.2
20260507222024 13 312 8.0 12.9 0.00 0.86 0.86 93 1012.2
20260507221020 13 312 6.4 11.3 0.00 0.86 0.86 93 1012.3
20260507220015 13 295 4.8 12.9 0.00 0.86 0.86 93 1012.2
20260507215031 13 307 4.8 11.3 0.00 0.86 0.86 93 1012.1
20260507214026 13 315 4.8 11.3 0.00 0.86 0.86 93 1012.0
20260507213022 13 307 4.8 11.3 0.00 0.86 0.86 93 1012.0
20260507212017 13 287 4.8 6.4 0.00 0.86 0.86 93 1011.8
20260507211032 13 288 4.8 6.4 0.00 0.86 0.86 93 1011.7
20260507210108 13 298 4.8 6.4 0.00 0.86 0.86 93 1011.6
20260507205023 13 307 4.8 6.4 0.00 0.86 0.86 93 1011.3
20260507204018 13 318 3.2 6.4 0.00 0.86 0.86 93 1011.3
20260507203034 13 350 1.6 3.2 0.00 0.86 0.86 93 1011.2
20260507202029 13 1 1.6 3.2 0.00 0.86 0.86 93 1011.3
20260507201024 13 14 0.0 1.6 0.03 0.86 0.86 92 1011.2
20260507200021 13 0.0 0.0 0.10 0.86 0.86 92 1011.1
20260507195036 13 345 1.6 4.8 0.15 0.86 0.86 91 1011.0
20260507194031 14 360 1.6 1.6 0.18 0.86 0.86 91 1010.9
20260507193047 13 112 0.0 1.6 0.23 0.86 0.86 90 1010.9
20260507192022 13 268 1.6 4.8 0.28 0.84 0.84 90 1010.7
20260507191038 13 296 3.2 4.8 0.33 0.84 0.84 91 1010.9
20260507190034 13 355 0.0 3.2 0.43 0.76 0.76 90 1011.2
20260507185029 13 315 4.8 9.7 0.56 0.71 0.71 90 1011.1
20260507184024 13 305 3.2 6.4 0.61 0.69 0.69 90 1011.1
20260507183040 13 308 3.2 9.7 0.58 0.64 0.64 90 1011.2
20260507182016 13 336 3.2 6.4 0.56 0.56 0.56 89 1011.0
20260507181031 13 317 8.0 12.9 0.51 0.51 0.51 89 1011.0
20260507180107 13 344 9.7 14.5 0.33 0.33 0.33 88 1010.9
20260507175022 13 354 9.7 14.5 0.15 0.15 0.15 87 1010.7
20260507174037 14 351 11.3 17.7 0.08 0.10 0.10 83 1010.6
20260507173113 16 329 14.5 25.7 0.05 0.05 0.05 73 1010.6
20260507172048 16 339 9.7 17.7 0.00 0.00 0.00 65 1010.7
20260507171024 17 351 12.9 27.4 0.00 0.00 0.00 67 1010.5
20260507170019 18 96 6.4 12.9 0.00 0.00 0.00 72 1010.2
20260507165035 18 71 4.8 14.5 0.00 0.00 0.00 69 1010.1
20260507164030 18 80 1.6 9.7 0.00 0.00 0.00 70 1010.0
20260507163026 18 75 3.2 9.7 0.00 0.00 0.00 70 1009.8
20260507162021 18 92 4.8 11.3 0.00 0.00 0.00 71 1009.7
20260507161056 18 83 3.2 12.9 0.00 0.00 0.00 68 1009.4
20260507160032 18 70 4.8 12.9 0.00 0.00 0.00 68 1009.5
20260507155047 18 68 4.8 12.9 0.00 0.00 0.00 68 1009.5
20260507154023 18 88 6.4 12.9 0.00 0.00 0.00 70 1009.6
20260507153018 18 93 11.3 20.9 0.00 0.00 0.00 73 1009.6
20260507152034 18 89 8.0 22.5 0.00 0.00 0.00 73 1009.4
20260507151029 18 99 9.7 24.1 0.00 0.00 0.00 73 1009.5
20260507150025 18 81 6.4 14.5 0.00 0.00 0.00 74 1009.5
20260507145020 18 90 8.0 17.7 0.00 0.00 0.00 74 1009.6
20260507144016 18 90 9.7 20.9 0.00 0.00 0.00 73 1009.7
20260507143111 18 96 11.3 24.1 0.00 0.00 0.00 73 1009.8
20260507142027 18 97 9.7 22.5 0.00 0.00 0.00 71 1009.9
20260507141042 19 85 8.0 20.9 0.00 0.00 0.00 69 1009.9
20260507140017 18 94 9.7 25.7 0.00 0.00 0.00 69 1009.9
20260507135053 18 89 12.9 29.0 0.00 0.00 0.00 69 1009.9
20260507134029 19 108 12.9 24.1 0.00 0.00 0.00 69 1010.0
20260507133024 19 84 8.0 20.9 0.00 0.00 0.00 61 1010.1
20260507132019 19 102 8.0 22.5 0.00 0.00 0.00 60 1010.0
20260507131055 19 45 6.4 24.1 0.00 0.00 0.00 62 1010.2
20260507130030 18 80 8.0 20.9 0.00 0.00 0.00 64 1010.3
20260507125026 18 77 8.0 14.5 0.00 0.00 0.00 65 1010.5
20260507124021 18 91 6.4 14.5 0.00 0.00 0.00 61 1010.6
20260507123037 18 61 9.7 17.7 0.00 0.00 0.00 64 1010.5
20260507122032 17 68 6.4 16.1 0.00 0.00 0.00 70 1010.6
20260507121028 17 54 6.4 16.1 0.00 0.00 0.00 75 1010.9
20260507120023 17 55 6.4 14.5 0.00 0.00 0.00 72 1011.1
20260507115018 17 54 8.0 22.5 0.00 0.00 0.00 73 1011.2
20260507114114 17 74 8.0 20.9 0.00 0.00 0.00 75 1011.3
20260507113029 16 69 4.8 12.9 0.00 0.00 0.00 77 1011.1
20260507112025 17 71 11.3 22.5 0.00 0.00 0.00 82 1011.4
20260507111020 17 71 6.4 24.1 0.00 0.00 0.00 83 1011.5
20260507110015 17 77 8.0 24.1 0.00 0.00 0.00 83 1011.6
20260507105031 17 88 9.7 24.1 0.00 0.00 0.00 80 1011.6
20260507104026 18 79 8.0 22.5 0.00 0.00 0.00 76 1011.5
20260507103021 18 102 14.5 29.0 0.00 0.00 0.00 71 1011.4
20260507102016 18 90 12.9 29.0 0.00 0.00 0.00 67 1011.5
20260507101032 19 100 16.1 25.7 0.00 0.00 0.00 62 1011.4
20260507100027 19 71 6.4 17.7 0.00 0.00 0.00 61 1011.5
20260507095023 19 65 8.0 22.5 0.00 0.00 0.00 64 1011.5
20260507094018 18 75 9.7 24.1 0.00 0.00 0.00 64 1011.4
20260507093034 18 64 8.0 16.1 0.00 0.00 0.00 67 1011.5
20260507092049 18 86 8.0 17.7 0.00 0.00 0.00 66 1011.4
20260507091025 18 71 6.4 16.1 0.00 0.00 0.00 68 1011.3
20260507090019 18 54 11.3 24.1 0.00 0.00 0.00 69 1011.4
20260507085035 18 73 6.4 20.9 0.00 0.00 0.00 69 1011.4
20260507084030 18 72 4.8 20.9 0.00 0.00 0.00 71 1011.5
20260507083045 18 92 11.3 25.7 0.00 0.00 0.00 71 1011.4
20260507082021 17 61 4.8 20.9 0.00 0.00 0.00 72 1011.5
20260507081017 17 45 6.4 16.1 0.00 0.00 0.00 72 1011.6
20260507080033 17 71 6.4 20.9 0.00 0.00 0.00 72 1011.6
20260507075048 17 59 8.0 16.1 0.00 0.00 0.00 74 1011.4
20260507074024 17 72 4.8 14.5 0.00 0.00 0.00 70 1011.5
20260507073019 18 87 1.6 6.4 0.00 0.00 0.00 64 1011.4
20260507072034 17 43 1.6 3.2 0.00 0.00 0.00 62 1011.3